• In Uzbekistan
  • List of Countries
  • For 7 days
  • Water Temperature
  • Satellite Maps
  • Weather Map
  • Weather Widgets
  • user-avatar
    Login

    Hourly Weather Amar

    Today, 23 May, Thursday

    Time Temperature Precipitation Wind Pressure Humidity
    00:00 +33°C° 0 mm 1 mps 754 mmHg 35%
    01:00 +34°C° 0 mm 2 mps 753 mmHg 34%
    02:00 +34°C° 0 mm 2 mps 753 mmHg 33%
    03:00 +33°C° 0 mm 3 mps 753 mmHg 32%
    04:00 +34°C° 0 mm 3 mps 753 mmHg 31%
    05:00 +34°C° 0 mm 4 mps 753 mmHg 30%
    06:00 +34°C° 0 mm 4 mps 753 mmHg 29%
    07:00 +36°C° 0 mm 4 mps 754 mmHg 26%
    08:00 +37°C° 0 mm 4 mps 754 mmHg 22%
    09:00 +40°C° 0 mm 4 mps 754 mmHg 20%
    10:00 +40°C° 0 mm 3 mps 754 mmHg 19%
    11:00 +40°C° 0 mm 2 mps 754 mmHg 18%
    12:00 +41°C° 0 mm 1 mps 753 mmHg 17%
    13:00 +40°C° 0 mm 3 mps 753 mmHg 19%
    14:00 +41°C° 0 mm 4 mps 753 mmHg 21%
    15:00 +40°C° 0 mm 6 mps 752 mmHg 22%
    16:00 +39°C° 0 mm 6 mps 752 mmHg 25%
    17:00 +38°C° 0 mm 6 mps 752 mmHg 27%
    18:00 +36°C° 0 mm 6 mps 752 mmHg 30%
    19:00 +36°C° 0 mm 5 mps 753 mmHg 32%
    20:00 +35°C° 0 mm 3 mps 753 mmHg 34%
    21:00 +35°C° 0 mm 2 mps 753 mmHg 36%
    22:00 +34°C° 0 mm 2 mps 753 mmHg 35%
    23:00 +34°C° 0 mm 2 mps 753 mmHg 34%

    Tomorrow, 24 May, Friday

    Time Temperature Precipitation Wind Pressure Humidity
    00:00 +33°C° 0 mm 1 mps 753 mmHg 33%
    01:00 +34°C° 0 mm 2 mps 753 mmHg 32%
    02:00 +34°C° 0 mm 2 mps 753 mmHg 32%
    03:00 +34°C° 0 mm 3 mps 752 mmHg 31%
    04:00 +34°C° 0 mm 3 mps 752 mmHg 30%
    05:00 +34°C° 0 mm 3 mps 753 mmHg 28%
    06:00 +34°C° 0 mm 2 mps 753 mmHg 27%
    07:00 +36°C° 0 mm 3 mps 753 mmHg 24%
    08:00 +37°C° 0 mm 3 mps 753 mmHg 21%
    09:00 +38°C° 0 mm 3 mps 754 mmHg 19%
    10:00 +39°C° 0 mm 3 mps 754 mmHg 18%
    11:00 +40°C° 0 mm 3 mps 753 mmHg 17%
    12:00 +40°C° 0 mm 3 mps 753 mmHg 17%
    13:00 +40°C° 0 mm 3 mps 753 mmHg 20%
    14:00 +40°C° 0 mm 4 mps 753 mmHg 22%
    15:00 +40°C° 0 mm 4 mps 752 mmHg 25%
    16:00 +38°C° 0 mm 4 mps 752 mmHg 30%
    17:00 +37°C° 0 mm 4 mps 752 mmHg 34%
    18:00 +36°C° 0 mm 4 mps 752 mmHg 38%
    19:00 +35°C° 0 mm 4 mps 753 mmHg 38%
    20:00 +35°C° 0 mm 4 mps 753 mmHg 37%
    21:00 +35°C° 0 mm 4 mps 753 mmHg 37%
    22:00 +35°C° 0 mm 4 mps 753 mmHg 36%
    23:00 +34°C° 0 mm 3 mps 753 mmHg 35%

    Day after tomorrow, 25 May, Saturday

    Time Temperature Precipitation Wind Pressure Humidity
    00:00 +34°C° 0 mm 3 mps 753 mmHg 34%
    01:00 +34°C° 0 mm 3 mps 753 mmHg 34%
    02:00 +32°C° 0 mm 2 mps 753 mmHg 35%
    03:00 +32°C° 0 mm 2 mps 752 mmHg 35%
    04:00 +32°C° 0 mm 2 mps 753 mmHg 34%
    05:00 +32°C° 0 mm 2 mps 753 mmHg 33%
    06:00 +32°C° 0 mm 2 mps 753 mmHg 33%
    07:00 +34°C° 0 mm 2 mps 754 mmHg 30%
    08:00 +34°C° 0 mm 1 mps 754 mmHg 28%
    09:00 +35°C° 0 mm 1 mps 754 mmHg 26%
    10:00 +36°C° 0 mm 1 mps 754 mmHg 24%
    11:00 +37°C° 0 mm 1 mps 754 mmHg 22%
    12:00 +39°C° 0 mm 1 mps 754 mmHg 20%
    13:00 +39°C° 0 mm 1 mps 753 mmHg 20%
    14:00 +39°C° 0 mm 1 mps 753 mmHg 19%
    15:00 +40°C° 0 mm 2 mps 752 mmHg 18%
    16:00 +39°C° 0 mm 2 mps 752 mmHg 20%
    17:00 +39°C° 0 mm 3 mps 752 mmHg 22%
    18:00 +38°C° 0 mm 4 mps 752 mmHg 24%
    19:00 +38°C° 0 mm 4 mps 752 mmHg 26%
    20:00 +37°C° 0 mm 4 mps 752 mmHg 28%
    21:00 +36°C° 0 mm 4 mps 753 mmHg 31%
    22:00 +36°C° 0 mm 4 mps 752 mmHg 31%
    23:00 +36°C° 0 mm 3 mps 752 mmHg 31%

    26 May, Sunday

    Time Temperature Precipitation Wind Pressure Humidity
    00:00 +35°C° 0 mm 3 mps 752 mmHg 31%
    01:00 +35°C° 0 mm 3 mps 752 mmHg 32%
    02:00 +34°C° 0 mm 3 mps 751 mmHg 33%
    03:00 +34°C° 0 mm 3 mps 751 mmHg 34%
    04:00 +34°C° 0 mm 2 mps 751 mmHg 33%
    05:00 +34°C° 0 mm 2 mps 752 mmHg 32%
    06:00 +34°C° 0 mm 2 mps 752 mmHg 31%
    07:00 +35°C° 0 mm 2 mps 752 mmHg 30%
    08:00 +36°C° 0 mm 2 mps 752 mmHg 28%
    09:00 +37°C° 0 mm 2 mps 753 mmHg 27%
    10:00 +38°C° 0 mm 2 mps 753 mmHg 25%
    11:00 +38°C° 0 mm 2 mps 752 mmHg 24%
    12:00 +39°C° 0 mm 2 mps 752 mmHg 22%
    13:00 +40°C° 0 mm 2 mps 752 mmHg 21%
    14:00 +40°C° 0 mm 3 mps 751 mmHg 20%
    15:00 +40°C° 0 mm 3 mps 751 mmHg 19%
    16:00 +40°C° 0 mm 3 mps 751 mmHg 20%
    17:00 +39°C° 0 mm 3 mps 751 mmHg 21%
    18:00 +38°C° 0 mm 3 mps 751 mmHg 22%
    19:00 +38°C° 0 mm 3 mps 752 mmHg 24%
    20:00 +37°C° 0 mm 3 mps 752 mmHg 25%
    21:00 +36°C° 0 mm 3 mps 752 mmHg 26%
    22:00 +36°C° 0 mm 3 mps 752 mmHg 27%
    23:00 +36°C° 0 mm 3 mps 752 mmHg 28%

    27 May, Monday

    Time Temperature Precipitation Wind Pressure Humidity
    00:00 +35°C° 0 mm 3 mps 751 mmHg 29%
    01:00 +35°C° 0 mm 2 mps 751 mmHg 29%
    02:00 +34°C° 0 mm 2 mps 751 mmHg 30%
    03:00 +34°C° 0 mm 2 mps 750 mmHg 31%
    04:00 +33°C° 0 mm 1 mps 751 mmHg 30%
    05:00 +33°C° 0 mm 1 mps 751 mmHg 29%
    06:00 +32°C° 0 mm 0 mps 751 mmHg 28%
    07:00 +33°C° 0 mm 0 mps 752 mmHg 27%
    08:00 +36°C° 0 mm 1 mps 752 mmHg 25%
    09:00 +36°C° 0 mm 1 mps 752 mmHg 23%
    10:00 +37°C° 0 mm 1 mps 752 mmHg 22%
    11:00 +39°C° 0 mm 2 mps 752 mmHg 20%
    12:00 +40°C° 0 mm 2 mps 751 mmHg 18%
    13:00 +40°C° 0 mm 3 mps 751 mmHg 19%
    14:00 +41°C° 0 mm 4 mps 751 mmHg 20%
    15:00 +41°C° 0 mm 5 mps 750 mmHg 21%
    16:00 +40°C° 0 mm 4 mps 751 mmHg 23%
    17:00 +38°C° 0 mm 4 mps 751 mmHg 25%
    18:00 +37°C° 0 mm 4 mps 751 mmHg 28%
    19:00 +37°C° 0 mm 3 mps 751 mmHg 28%
    20:00 +37°C° 0 mm 2 mps 751 mmHg 29%
    21:00 +35°C° 0 mm 1 mps 752 mmHg 29%
    22:00 +35°C° 0 mm 1 mps 751 mmHg 29%
    23:00 +32°C° 0 mm 0 mps 751 mmHg 29%

    28 May, Tuesday

    Time Temperature Precipitation Wind Pressure Humidity
    00:00 +32°C° 0 mm 0 mps 751 mmHg 29%
    01:00 +31°C° 0 mm 0 mps 750 mmHg 29%
    02:00 +31°C° 0 mm 0 mps 750 mmHg 29%
    03:00 +30°C° 0 mm 0 mps 750 mmHg 29%
    04:00 +33°C° 0 mm 1 mps 751 mmHg 28%
    05:00 +35°C° 0 mm 2 mps 751 mmHg 26%
    06:00 +36°C° 0 mm 2 mps 751 mmHg 25%
    07:00 +37°C° 0 mm 2 mps 752 mmHg 22%
    08:00 +38°C° 0 mm 2 mps 752 mmHg 20%
    09:00 +39°C° 0 mm 2 mps 752 mmHg 18%
    10:00 +40°C° 0 mm 2 mps 752 mmHg 17%
    11:00 +41°C° 0 mm 2 mps 752 mmHg 17%
    12:00 +41°C° 0 mm 1 mps 751 mmHg 16%
    13:00 +41°C° 0 mm 2 mps 751 mmHg 16%
    14:00 +41°C° 0 mm 2 mps 750 mmHg 16%
    15:00 +42°C° 0 mm 2 mps 750 mmHg 16%
    16:00 +41°C° 0 mm 2 mps 750 mmHg 16%
    17:00 +41°C° 0 mm 2 mps 750 mmHg 17%
    18:00 +40°C° 0 mm 1 mps 750 mmHg 17%
    19:00 +39°C° 0 mm 1 mps 751 mmHg 17%
    20:00 +39°C° 0 mm 1 mps 751 mmHg 18%
    21:00 +37°C° 0 mm 1 mps 751 mmHg 18%
    22:00 +36°C° 0 mm 1 mps 751 mmHg 18%
    23:00 +36°C° 0 mm 1 mps 750 mmHg 19%
    Show more